Powrót do katalogu

COSMOS 839 DEB

AktywnyUNKNOWN
NORAD 10451·DEBRIS·🇷🇺 Russia

Wystrzelony Jul 8, 1976 z Plesetsk Cosmodrome

Loading…

Następne Przeloty (najbliższe 24 godziny)

TLE

ŚwieżeSource: Space-Track

Epoka: Sep 14, 2026, 08:20 UTC

1 10451U 76067AC  26257.34783544 -.00000061  00000-0 -11361-4 0  9992
2 10451  65.8493 250.8019 0763137  68.1269 299.9072 12.45892771281984

Śledź COSMOS 839 DEB w czasie rzeczywistym z AllMySat

Download on the App Store